Weather History for Milton, FL

Change the Weather History Date:

Thursday, March 28, 2013

  Actual Average (KNSE) Record (KNSE)
Temperature  
Mean Temperature 51 °F -  
Max Temperature 72 °F 72 °F 82 °F (2009)
Min Temperature 30 °F 50 °F 33 °F (2013)
Degree Days  
Heating Degree Days 14    
Growing Degree Days 1 (Base 50)    
Moisture  
Dew Point 31 °F    
Average Humidity 53    
Maximum Humidity 92    
Minimum Humidity 13    
Precipitation  
Precipitation 0.00 in - - ()
Sea Level Pressure  
Sea Level Pressure 30.28 in    
Wind  
Wind Speed 4 mph (NW)    
Max Wind Speed 8 mph    
Max Gust Speed -    
Visibility 10 miles    
Events      
Averages and records for this station are not official NWS values.
T = Trace of Precipitation, MM = Missing Value Source: NWS Daily Summary

Daily Weather History Graph

Daily Weather History Graph

Search for Another Location

Airport:

Trip Planner

Search our weather history database for the weather conditions in past years. The results will help you decide how hot, cold, wet, or windy it might be!

Date:

Astronomy

Mar. 28, 2013 Rise Set
Actual Time 6:41 AM CDT 7:04 PM CDT
Civil Twilight 6:17 AM CDT 7:28 PM CDT
Nautical Twilight 5:49 AM CDT 7:57 PM CDT
Astronomical Twilight 5:20 AM CDT 8:26 PM CDT
Moon 8:45 PM CDT (3/28) 7:17 AM CDT (3/28)
Length of Visible Light 13h 11m
Length of Day
12h 23m
Full, 98% of the Moon is Illuminated
Mar 28
Full
Apr 2
Last Quarter
Apr 10
New
Apr 18
First Quarter
Apr 25
Full

Hourly Weather History & Observations

Time (CDT) Temp. Windchill Dew Point Humidity Pressure Visibility Wind Dir Wind Speed Gust Speed Precip Events Conditions
12:56 AM 36.0 °F 33.3 °F 32.0 °F 86% 30.29 in 10.0 mi West 3.5 mph - N/A   Clear
1:56 AM 36.0 °F 33.3 °F 32.0 °F 86% 30.29 in 10.0 mi WNW 3.5 mph - N/A   Clear
2:56 AM 37.0 °F - 33.1 °F 86% 30.28 in 10.0 mi Calm Calm - N/A   Clear
3:56 AM 30.9 °F 27.5 °F 28.0 °F 89% 30.27 in 10.0 mi NW 3.5 mph - N/A   Clear
4:56 AM 30.9 °F 27.5 °F 28.0 °F 89% 30.28 in 10.0 mi WNW 3.5 mph - N/A   Clear
5:56 AM 30.9 °F 27.5 °F 28.9 °F 92% 30.30 in 10.0 mi NNW 3.5 mph - N/A   Clear
6:56 AM 34.0 °F - 30.0 °F 85% 30.31 in 10.0 mi Calm Calm - N/A   Clear
7:56 AM 42.1 °F - 33.1 °F 70% 30.32 in 10.0 mi Calm Calm - N/A   Clear
8:56 AM 53.1 °F - 33.1 °F 47% 30.33 in 10.0 mi NNE 5.8 mph - N/A   Clear
9:56 AM 57.9 °F - 30.9 °F 36% 30.33 in 10.0 mi NE 8.1 mph - N/A   Clear
10:56 AM 63.0 °F - 27.0 °F 26% 30.33 in 10.0 mi NNW 6.9 mph - N/A   Clear
11:56 AM 64.9 °F - 26.1 °F 23% 30.31 in 10.0 mi North 4.6 mph - N/A   Clear
12:56 PM 68.0 °F - 25.0 °F 20% 30.29 in 10.0 mi Variable 5.8 mph - N/A   Clear
1:56 PM 69.1 °F - 26.1 °F 20% 30.26 in 10.0 mi Calm Calm - N/A   Clear
2:56 PM 71.1 °F - 18.0 °F 13% 30.24 in 10.0 mi NNW 8.1 mph - N/A   Clear
3:56 PM 72.0 °F - 21.0 °F 15% 30.21 in 10.0 mi WNW 8.1 mph - N/A   Clear
4:56 PM 66.9 °F - 34.0 °F 30% 30.21 in 10.0 mi SSW 8.1 mph - N/A   Clear
5:56 PM 63.0 °F - 35.1 °F 35% 30.22 in 10.0 mi SSW 5.8 mph - N/A   Clear
6:56 PM 57.9 °F - 37.9 °F 47% 30.23 in 10.0 mi South 6.9 mph - N/A   Clear
7:56 PM 55.9 °F - 37.9 °F 51% 30.25 in 10.0 mi SSW 3.5 mph - N/A   Clear
8:56 PM 55.0 °F - 36.0 °F 49% 30.26 in 10.0 mi Calm Calm - N/A   Clear
9:56 PM 53.1 °F - 36.0 °F 52% 30.27 in 10.0 mi Calm Calm - N/A   Clear
10:56 PM 46.0 °F - 36.0 °F 68% 30.28 in 10.0 mi Calm Calm - N/A   Clear
11:56 PM 46.0 °F - 36.0 °F 68% 30.28 in 10.0 mi Calm Calm - N/A   Clear